This is the latest recevied weather packets stored in our database for station/object W8CEN. If no packets are shown the sender has not sent any weather packets the latest 10 day(s).
| Time | Temp. | Humidity | Pressure | Rain* | Wind** | Luminosity | Snow |
|---|---|---|---|---|---|---|---|
| 1777780723 | 6.11° C | 65% | 995.4 hPa | 0 mm | - | 0 W/m² | - |
| 1777780419 | 6.11° C | 64% | 995.4 hPa | 0 mm | - | 0 W/m² | - |
| 1777780117 | 6.11° C | 63% | 995.4 hPa | 0 mm | - | 0 W/m² | - |
| 1777779814 | 6.11° C | 63% | 995.4 hPa | 0 mm | - | 0 W/m² | - |
| 1777779511 | 6.67° C | 62% | 995.3 hPa | 0 mm | - | 0 W/m² | - |
| 1777779209 | 6.67° C | 63% | 995.4 hPa | 0 mm | - | 0 W/m² | - |
| 1777778907 | 6.67° C | 62% | 995.4 hPa | 0 mm | - | 0 W/m² | - |
| 1777778606 | 6.67° C | 61% | 995.4 hPa | 0 mm | - | 0 W/m² | - |
| 1777778302 | 6.11° C | 63% | 995.3 hPa | 0 mm | - | 0 W/m² | - |
| 1777778000 | 6.11° C | 65% | 995.6 hPa | 0 mm | - | 0 W/m² | - |
| 1777777696 | 5.56° C | 69% | 995.6 hPa | 0 mm | - | 0 W/m² | - |
| 1777777393 | 5.56° C | 72% | 995.3 hPa | 0 mm | - | 0 W/m² | - |
| 1777777089 | 5.56° C | 72% | 995.6 hPa | 0 mm | - | 0 W/m² | - |
| 1777776787 | 5.56° C | 70% | 995.7 hPa | 0 mm | - | 0 W/m² | - |
| 1777776484 | 5.56° C | 69% | 995.5 hPa | 0 mm | - | 0 W/m² | - |
| 1777776180 | 5.56° C | 68% | 995.6 hPa | 0 mm | - | 0 W/m² | - |
| 1777775878 | 5.56° C | 68% | 995.6 hPa | 0 mm | - | 0 W/m² | - |
| 1777775575 | 5.56° C | 70% | 995.8 hPa | 0 mm | - | 0 W/m² | - |
| 1777775271 | 5.56° C | 70% | 995.7 hPa | 0 mm | - | 0 W/m² | - |
| 1777774971 | 5.56° C | 68% | 995.7 hPa | 0 mm | - | 0 W/m² | - |
| 1777774668 | 5.56° C | 68% | 995.6 hPa | 0 mm | - | 0 W/m² | - |
| 1777774364 | 5.56° C | 68% | 995.5 hPa | 0 mm | - | 0 W/m² | - |
| 1777774062 | 5.56° C | 69% | 995.7 hPa | 0 mm | - | 0 W/m² | - |
| 1777773759 | 6.11° C | 68% | 995.9 hPa | 0 mm | - | 0 W/m² | - |
| 1777773455 | 6.11° C | 69% | 995.6 hPa | 0 mm | - | 0 W/m² | - |
* Rain latest hour (hover to see other rain measurements)
** Current wind speed in m/s (hover to see current wind gust speed)